This is the latest recevied weather packets stored in our database for station/object NR0A-4. If no packets are shown the sender has not sent any weather packets the latest 1 day(s).
| Time | Temp. | Humidity | Pressure | Rain* | Wind** | Luminosity | Snow |
|---|---|---|---|---|---|---|---|
| 1777988704 | 7.22° C | 62% | 1012.8 hPa | 0 mm | 0.45 m/s, 273° | 125 W/m² | - |
| 1777988404 | 7.22° C | 60% | 1012.7 hPa | 0 mm | 0.45 m/s, 275° | 125 W/m² | - |
| 1777988104 | 7.22° C | 60% | 1012.7 hPa | 0 mm | 0.89 m/s, 303° | 114 W/m² | - |
| 1777987805 | 7.22° C | 61% | 1012.7 hPa | 0 mm | 0.89 m/s, 292° | 134 W/m² | - |
| 1777987504 | 6.67° C | 62% | 1012.5 hPa | 0 mm | 0.45 m/s, 299° | 179 W/m² | - |
| 1777987205 | 6.67° C | 63% | 1012.4 hPa | 0 mm | 0.45 m/s, 322° | 148 W/m² | - |
| 1777986904 | 6.67° C | 64% | 1012.4 hPa | 0 mm | 0.45 m/s, 333° | 141 W/m² | - |
| 1777986604 | 6.67° C | 64% | 1012.4 hPa | 0 mm | 0.89 m/s, 286° | 160 W/m² | - |
| 1777986304 | 6.11° C | 65% | 1012.4 hPa | 0 mm | 0.89 m/s, 276° | 172 W/m² | - |
| 1777986004 | 6.11° C | 65% | 1012.4 hPa | 0 mm | 1.79 m/s, 290° | 130 W/m² | - |
| 1777985705 | 6.11° C | 65% | 1012.2 hPa | 0 mm | 1.34 m/s, 271° | 137 W/m² | - |
| 1777985405 | 5.56° C | 65% | 1012.1 hPa | 0 mm | 0.89 m/s, 288° | 84 W/m² | - |
| 1777985105 | 5.56° C | 65% | 1012.2 hPa | 0 mm | 1.34 m/s, 305° | 84 W/m² | - |
| 1777984804 | 5.56° C | 66% | 1012 hPa | 0 mm | 0.89 m/s, 273° | 60 W/m² | - |
| 1777984505 | 5.56° C | 67% | 1011.8 hPa | 0 mm | 0.89 m/s, 290° | 79 W/m² | - |
| 1777984205 | 5.56° C | 67% | 1011.7 hPa | 0 mm | 0.89 m/s, 270° | 40 W/m² | - |
| 1777983904 | 5.56° C | 68% | 1011.4 hPa | 0 mm | 1.34 m/s, 279° | 46 W/m² | - |
| 1777983604 | 5.56° C | 68% | 1011.3 hPa | 0 mm | 0.45 m/s, 275° | 42 W/m² | - |
| 1777983304 | 5.56° C | 68% | 1011.5 hPa | 0 mm | 0.89 m/s, 287° | 33 W/m² | - |
| 1777983015 | 5.56° C | 68% | 1011.5 hPa | 0 mm | 0.45 m/s, 271° | 28 W/m² | - |
| 1777982704 | 5.56° C | 68% | 1011.5 hPa | 0 mm | 0 m/s | 25 W/m² | - |
| 1777982404 | 5.56° C | 67% | 1011.2 hPa | 0 mm | 0.45 m/s, 278° | 23 W/m² | - |
| 1777982104 | 5.56° C | 67% | 1011.1 hPa | 0 mm | 0.89 m/s, 274° | 18 W/m² | - |
| 1777981805 | 5° C | 67% | 1011 hPa | 0 mm | 0.89 m/s, 276° | 7 W/m² | - |
| 1777981504 | 5° C | 67% | 1010.8 hPa | 0 mm | 0.45 m/s, 285° | 7 W/m² | - |
* Rain latest hour (hover to see other rain measurements)
** Current wind speed in m/s (hover to see current wind gust speed)